Location: Bad Dürkheim
(49.4618°N, 8.1724°E)
Time: 15:53:19
(UTC+00:00)

Geosat - Pass Details

Date: 14 June 2025
Orbit: 758 x 761 km, 108.0° (Epoch: 19 July)

Event Time Altitude Azimuth Distance (km) Brightness Sun altitude
Rises 22:01:01 0° 27° (NNE) 3,233 7.9 -14.7°
Reaches altitude 10° 22:03:19 10° 26° (NNE) 2,304 7.1 -14.8°
Maximum altitude 22:08:18 68° 304° (NW) 820 4.3 -15.1°
Drops below altitude 10° 22:13:15 10° 222° (SW) 2,290 6.2 -15.4°
Enters shadow 22:14:35 - 221° (SW) 2,826 6.6 -15.4°
